Meath Environmental Platform

Observations for Trim Patrick St

Time AQI Temp °C Hum % Pres Pa CO μg/m³ H₂S μg/m³ NO μg/m³ NO₂ μg/m³ O₃ μg/m³ SO₂ μg/m³ PM1 μg/m³ PM2.5 μg/m³ PM10 μg/m³
Friday 7 August 2026
21:31 3 20.2 51 68,997 0 22.71 1.29 50.39 39.13 6.16 2.86 8.62 9.48
21:30 3 20.3 51 68,983 0 20.84 1.28 48.99 36.84 6.5 2 7.9 8.69
21:29 3 20.3 51 68,969 0 21.85 1.26 41.33 38.96 6.47 2.86 8.63 9.5
21:28 3 20.3 52 68,951 0 21.27 1.26 55.91 42.48 5.95 2.86 8.59 9.45
21:27 3 20.4 51 68,924 0 20.82 1.25 41.97 38.91 6.67 2.86 7.89 8.67
21:26 3 20.4 50 68,924 0 21.66 1.24 48.43 36.73 6.55 2.86 7.91 8.7
21:25 3 20.5 50 68,920 0 20.9 1.26 41.78 48.2 5.92 2.86 7.94 8.73
21:24 3 20.6 50 68,916 0 21.48 1.26 49.73 42.88 6.64 3.71 8.7 9.57
21:22 3 20.7 50 68,882 0 21 1.28 38.66 43.26 7.48 2 6.4 7.04
21:21 3 20.7 50 68,900 0 20.9 1.29 41.87 44.11 7.03 2 7.97 8.76
21:20 3 20.8 50 68,894 0 20.95 1.31 41.71 42.27 7.36 3.71 8.74 9.61
21:19 3 20.9 50 68,912 0 21.64 1.32 44 39.95 7.98 2 6.43 7.08
21:18 3 20.9 49 68,908 0 21.32 1.31 42.77 40.29 7.91 2.86 7.98 8.78
21:17 3 21 49 68,906 0 20.95 1.31 37.35 45.89 7.99 2.86 7.99 8.79
21:16 3 21 49 68,902 0 21.66 1.33 39.77 44.39 7.82 2.86 8 8.8
21:15 3 21.1 49 68,896 0 21.35 1.29 36.36 47.26 7.91 2 7.24 7.97
21:14 3 21.1 49 68,892 0 21.27 1.29 37.98 45.03 8.18 3.71 8.79 9.67
21:13 3 21.2 49 68,888 0 21.69 1.29 48.78 37.03 8.08 2.86 8.03 8.83
21:12 3 21.3 48 68,882 0 21.51 1.3 53.25 34.03 8.78 3.71 8.81 9.69
21:11 3 21.3 48 68,871 0 20.82 1.3 36.43 48.06 8.16 2.86 8.05 8.86